TimeEST,TemperatureF,Dew PointF,Humidity,Sea Level PressureIn,VisibilityMPH,Wind Direction,Wind SpeedMPH,Gust SpeedMPH,PrecipitationIn,Events,Conditions,WindDirDegrees,DateUTC
12:35 AM,50.9,39.6,65,30.39,10.0,Calm,Calm,-,N/A,,Clear,0,2013-01-10 05:35:00
12:55 AM,43.7,39.4,85,30.40,10.0,Calm,Calm,-,N/A,,Clear,0,2013-01-10 05:55:00
1:15 AM,44.1,37.9,79,30.40,10.0,Calm,Calm,-,N/A,,Clear,0,2013-01-10 06:15:00
3:15 AM,38.8,32.0,76,30.43,10.0,NNW,6.9,-,N/A,,Clear,330,2013-01-10 08:15:00
3:35 AM,41.7,32.9,71,30.43,10.0,NNW,5.8,-,N/A,,Clear,330,2013-01-10 08:35:00
3:55 AM,38.8,33.3,80,30.43,10.0,Calm,Calm,-,N/A,,Clear,0,2013-01-10 08:55:00
4:15 AM,38.1,32.4,80,30.44,10.0,Calm,Calm,-,N/A,,Clear,0,2013-01-10 09:15:00
4:55 AM,37.9,31.8,79,30.45,10.0,WNW,3.5,-,N/A,,Clear,300,2013-01-10 09:55:00
5:15 AM,38.8,32.0,76,30.46,10.0,East,3.5,-,N/A,,Clear,80,2013-01-10 10:15:00
5:35 AM,35.6,32.2,87,30.46,10.0,NE,8.1,-,N/A,,Clear,40,2013-01-10 10:35:00
5:55 AM,36.5,32.0,84,30.47,10.0,Calm,Calm,-,N/A,,Clear,0,2013-01-10 10:55:00
6:15 AM,35.6,32.0,87,30.49,10.0,NNE,4.6,-,N/A,,Clear,20,2013-01-10 11:15:00
6:35 AM,33.6,31.3,91,30.49,10.0,Calm,Calm,-,N/A,,Clear,0,2013-01-10 11:35:00
6:55 AM,34.9,32.0,89,30.51,10.0,East,3.5,-,N/A,,Clear,80,2013-01-10 11:55:00
7:15 AM,34.3,31.6,90,30.52,10.0,NNE,4.6,-,N/A,,Clear,20,2013-01-10 12:15:00
7:55 AM,33.8,31.8,92,30.54,10.0,NE,3.5,-,N/A,,Clear,50,2013-01-10 12:55:00
8:15 AM,43.2,33.4,69,30.55,10.0,ENE,3.5,-,N/A,,Clear,70,2013-01-10 13:15:00
8:35 AM,44.4,34.9,69,30.56,10.0,North,3.5,-,N/A,,Clear,10,2013-01-10 13:35:00
8:55 AM,47.3,34.9,62,30.56,10.0,Calm,Calm,-,N/A,,Clear,0,2013-01-10 13:55:00
9:15 AM,48.9,35.4,60,30.57,10.0,NE,5.8,-,N/A,,Clear,50,2013-01-10 14:15:00
9:35 AM,50.0,36.1,59,30.57,10.0,NNE,6.9,-,N/A,,Clear,20,2013-01-10 14:35:00
9:55 AM,51.4,36.0,56,30.58,10.0,NNE,6.9,-,N/A,,Clear,30,2013-01-10 14:55:00
10:15 AM,52.5,35.8,53,30.58,10.0,NNE,6.9,-,N/A,,Clear,30,2013-01-10 15:15:00
10:55 AM,54.1,35.4,49,30.57,10.0,NNE,6.9,-,N/A,,Clear,20,2013-01-10 15:55:00
11:35 AM,56.1,35.6,46,30.55,10.0,NE,8.1,-,N/A,,Clear,50,2013-01-10 16:35:00
11:55 AM,56.5,35.6,46,30.53,10.0,NE,6.9,-,N/A,,Clear,40,2013-01-10 16:55:00
12:15 PM,56.8,35.6,45,30.52,10.0,North,9.2,-,N/A,,Clear,10,2013-01-10 17:15:00
12:35 PM,56.8,35.1,44,30.51,10.0,NNE,9.2,-,N/A,,Clear,20,2013-01-10 17:35:00
12:55 PM,57.2,34.5,43,30.51,10.0,NNE,8.1,-,N/A,,Clear,20,2013-01-10 17:55:00
1:15 PM,57.7,34.7,42,30.50,10.0,NNE,6.9,-,N/A,,Clear,30,2013-01-10 18:15:00
1:35 PM,57.0,34.5,43,30.50,10.0,NNE,5.8,-,N/A,,Clear,30,2013-01-10 18:35:00
1:55 PM,57.2,34.9,43,30.50,10.0,NE,5.8,-,N/A,,Clear,40,2013-01-10 18:55:00
2:15 PM,57.2,35.1,43,30.50,10.0,East,4.6,-,N/A,,Clear,90,2013-01-10 19:15:00
2:35 PM,58.6,35.1,41,30.49,10.0,NE,6.9,-,N/A,,Clear,40,2013-01-10 19:35:00
2:55 PM,55.8,34.0,44,30.49,10.0,ENE,3.5,-,N/A,,Clear,70,2013-01-10 19:55:00
3:15 PM,56.5,34.7,44,30.49,10.0,ENE,4.6,-,N/A,,Clear,70,2013-01-10 20:15:00
3:35 PM,57.2,33.8,41,30.49,10.0,NE,5.8,-,N/A,,Clear,40,2013-01-10 20:35:00
3:55 PM,55.9,32.9,42,30.50,10.0,NE,5.8,-,N/A,,Clear,50,2013-01-10 20:55:00
4:15 PM,55.0,32.7,43,30.50,10.0,ENE,4.6,-,N/A,,Clear,60,2013-01-10 21:15:00
4:35 PM,54.1,32.5,44,30.50,10.0,Calm,Calm,-,N/A,,Clear,0,2013-01-10 21:35:00
4:55 PM,52.0,34.0,50,30.49,10.0,East,4.6,-,N/A,,Clear,100,2013-01-10 21:55:00
5:15 PM,52.5,32.7,47,30.49,10.0,NE,3.5,-,N/A,,Clear,50,2013-01-10 22:15:00
5:35 PM,51.6,33.3,50,30.49,10.0,ENE,3.5,-,N/A,,Clear,70,2013-01-10 22:35:00
5:55 PM,51.8,32.5,48,30.49,10.0,ENE,3.5,-,N/A,,Clear,70,2013-01-10 22:55:00
6:15 PM,45.9,36.0,68,30.50,10.0,Calm,Calm,-,N/A,,Clear,0,2013-01-10 23:15:00
6:35 PM,45.5,36.0,69,30.50,10.0,Calm,Calm,-,N/A,,Clear,0,2013-01-10 23:35:00
6:55 PM,45.0,35.8,70,30.51,10.0,Calm,Calm,-,N/A,,Clear,0,2013-01-10 23:55:00
7:15 PM,45.7,35.4,67,30.50,10.0,Calm,Calm,-,N/A,,Clear,0,2013-01-11 00:15:00
7:35 PM,46.2,34.7,64,30.50,10.0,Calm,Calm,-,N/A,,Clear,0,2013-01-11 00:35:00
7:55 PM,45.5,34.9,66,30.50,10.0,Calm,Calm,-,N/A,,Clear,0,2013-01-11 00:55:00
8:15 PM,43.5,35.2,73,30.50,10.0,Calm,Calm,-,N/A,,Clear,0,2013-01-11 01:15:00
8:35 PM,42.4,35.1,75,30.49,10.0,Calm,Calm,-,N/A,,Clear,0,2013-01-11 01:35:00
8:55 PM,39.9,35.6,85,30.50,10.0,Calm,Calm,-,N/A,,Clear,0,2013-01-11 01:55:00
9:35 PM,42.3,35.4,77,30.49,10.0,Calm,Calm,-,N/A,,Clear,0,2013-01-11 02:35:00
9:55 PM,41.9,34.5,75,30.49,10.0,Calm,Calm,-,N/A,,Clear,0,2013-01-11 02:55:00
10:15 PM,41.0,35.2,80,30.49,10.0,ENE,4.6,-,N/A,,Clear,70,2013-01-11 03:15:00
10:35 PM,45.1,34.9,67,30.49,10.0,East,4.6,-,N/A,,Clear,90,2013-01-11 03:35:00
10:55 PM,43.5,34.7,71,30.49,10.0,ESE,3.5,-,N/A,,Clear,110,2013-01-11 03:55:00
11:15 PM,42.6,34.7,74,30.49,10.0,East,3.5,-,N/A,,Clear,80,2013-01-11 04:15:00
11:35 PM,40.1,34.7,81,30.49,10.0,Calm,Calm,-,N/A,,Clear,0,2013-01-11 04:35:00